Location: Unspecified
(54.1780°N, 0.0000°E)
Time: 11:14:28
(UTC+00:00)

Altair - Pass Details

Date: 21 June 2019
Orbit: 1501 x 1683 km, 47.2° (Epoch: 15 July)

Event Time Altitude Azimuth Distance (km) Brightness Sun altitude
Rises 18:53:24 0° 198° (SSW) 4,694 10.0 11.7°
Reaches altitude 10° 18:57:07 10° 185° (S) 3,740 9.4 11.2°
Maximum altitude 19:04:15 25° 136° (SE) 2,817 8.5 10.3°
Drops below altitude 10° 19:11:34 10° 87° (E) 3,862 9.1 9.3°
Sets 19:15:28 0° 75° (ENE) 4,878 9.7 8.8°
